| time (UTC) | temp F | wind direction | speed MPH | gust MPH | rain 1hr in | rain 24hr in | rain mn in | humidity % | barometer mb |
| 20260902024516 | 77 | 0.0 | 0.0 | 0.00 | 0.00 | 0.00 | 92 | 1026.4 | |
| 20260902024016 | 77 | 0.0 | 0.0 | 0.00 | 0.00 | 0.00 | 92 | 1026.4 | |
| 20260902023516 | 77 | 0.0 | 0.0 | 0.00 | 0.00 | 0.00 | 92 | 1026.5 | |
| 20260902023017 | 77 | 0.0 | 0.0 | 0.00 | 0.00 | 0.00 | 92 | 1026.6 | |
| 20260902022516 | 77 | 0.0 | 0.0 | 0.00 | 0.00 | 0.00 | 92 | 1026.4 | |
| 20260902022017 | 77 | 0.0 | 0.0 | 0.00 | 0.00 | 0.00 | 92 | 1026.4 | |
| 20260902021516 | 77 | 0.0 | 0.0 | 0.00 | 0.00 | 0.00 | 92 | 1026.5 | |
| 20260902021036 | 77 | 0.0 | 0.0 | 0.00 | 0.00 | 0.00 | 92 | 1026.5 | |
| 20260902020517 | 78 | 0.0 | 0.0 | 0.00 | 0.00 | 0.00 | 92 | 1026.3 | |
| 20260902020017 | 78 | 0.0 | 0.0 | 0.00 | 0.00 | 0.00 | 91 | 1026.1 | |
| 20260902015517 | 78 | 0.0 | 0.0 | 0.00 | 0.00 | 0.00 | 92 | 1026.0 | |
| 20260902015016 | 78 | 0.0 | 0.0 | 0.00 | 0.00 | 0.00 | 91 | 1026.1 | |
| 20260902014516 | 78 | 0.0 | 0.0 | 0.00 | 0.00 | 0.00 | 91 | 1026.1 | |
| 20260902014016 | 78 | 0.0 | 0.0 | 0.00 | 0.00 | 0.00 | 91 | 1026.0 | |
| 20260902013516 | 78 | 0.0 | 0.0 | 0.00 | 0.00 | 0.00 | 91 | 1025.7 | |
| 20260902013016 | 78 | 0.0 | 0.0 | 0.00 | 0.00 | 0.00 | 91 | 1025.7 | |
| 20260902012517 | 79 | 0.0 | 0.0 | 0.00 | 0.00 | 0.00 | 91 | 1025.7 | |
| 20260902012037 | 79 | 0.0 | 0.0 | 0.00 | 0.00 | 0.00 | 90 | 1025.7 | |
| 20260902011516 | 79 | 0.0 | 0.0 | 0.00 | 0.00 | 0.00 | 90 | 1025.7 | |
| 20260902011016 | 79 | 0.0 | 0.0 | 0.00 | 0.00 | 0.00 | 90 | 1025.7 | |
| 20260902010516 | 79 | 0.0 | 0.0 | 0.00 | 0.00 | 0.00 | 89 | 1025.6 | |
| 20260902010016 | 79 | 0.0 | 0.0 | 0.00 | 0.00 | 0.00 | 89 | 1025.5 | |
| 20260902005536 | 79 | 0.0 | 0.0 | 0.00 | 0.00 | 0.00 | 89 | 1025.5 | |
| 20260902005016 | 80 | 0.0 | 0.0 | 0.00 | 0.00 | 0.00 | 89 | 1025.4 | |
| 20260902004516 | 80 | 0.0 | 0.0 | 0.00 | 0.00 | 0.00 | 89 | 1025.3 | |
| 20260902004016 | 80 | 0.0 | 0.0 | 0.00 | 0.00 | 0.00 | 88 | 1025.2 | |
| 20260902003516 | 80 | 0.0 | 0.0 | 0.00 | 0.00 | 0.00 | 88 | 1025.3 | |
| 20260902003016 | 80 | 0.0 | 0.0 | 0.00 | 0.00 | 0.00 | 87 | 1025.2 | |
| 20260902002536 | 81 | 0.0 | 0.0 | 0.00 | 0.00 | 0.00 | 87 | 1025.1 | |
| 20260902002016 | 81 | 0.0 | 0.0 | 0.00 | 0.00 | 0.00 | 86 | 1025.2 | |
| 20260902001536 | 81 | 0.0 | 0.0 | 0.00 | 0.00 | 0.00 | 86 | 1025.1 | |
| 20260902001036 | 81 | 0.0 | 0.0 | 0.00 | 0.00 | 0.00 | 86 | 1025.0 | |
| 20260902000516 | 81 | 0.0 | 0.0 | 0.00 | 0.00 | 0.00 | 85 | 1025.2 | |
| 20260902000016 | 82 | 0.0 | 0.0 | 0.00 | 0.00 | 0.00 | 85 | 1025.2 | |
| 20260901235516 | 82 | 0.0 | 0.0 | 0.00 | 0.00 | 0.00 | 85 | 1025.1 | |
| 20260901235056 | 82 | 0.0 | 0.0 | 0.00 | 0.00 | 0.00 | 84 | 1025.1 | |
| 20260901234516 | 82 | 0.0 | 0.0 | 0.00 | 0.00 | 0.00 | 85 | 1025.0 | |
| 20260901234016 | 83 | 0.0 | 0.0 | 0.00 | 0.00 | 0.00 | 84 | 1025.2 | |
| 20260901233556 | 83 | 0.0 | 0.0 | 0.00 | 0.00 | 0.00 | 85 | 1025.1 | |
| 20260901233016 | 83 | 0.0 | 0.0 | 0.00 | 0.00 | 0.00 | 84 | 1025.3 | |
| 20260901232516 | 84 | 0.0 | 0.0 | 0.00 | 0.00 | 0.00 | 83 | 1025.3 | |
| 20260901232016 | 84 | 0.0 | 0.0 | 0.00 | 0.00 | 0.00 | 82 | 1025.3 | |
| 20260901231536 | 84 | 0.0 | 0.0 | 0.00 | 0.00 | 0.00 | 82 | 1025.5 | |
| 20260901231016 | 85 | 0.0 | 0.0 | 0.00 | 0.00 | 0.00 | 81 | 1025.6 | |
| 20260901230516 | 85 | 0.0 | 0.0 | 0.00 | 0.00 | 0.00 | 80 | 1025.6 | |
| 20260901230016 | 85 | 0.0 | 0.0 | 0.00 | 0.00 | 0.00 | 79 | 1025.5 | |
| 20260901225517 | 85 | 0.0 | 0.0 | 0.00 | 0.00 | 0.00 | 79 | 1025.6 | |
| 20260901225016 | 86 | 0.0 | 0.0 | 0.00 | 0.00 | 0.00 | 78 | 1025.7 | |
| 20260901224516 | 86 | 0.0 | 0.0 | 0.00 | 0.00 | 0.00 | 77 | 1025.7 | |
| 20260901224016 | 86 | 0.0 | 0.0 | 0.00 | 0.00 | 0.00 | 76 | 1025.7 | |
| 20260901223516 | 86 | 0.0 | 0.0 | 0.00 | 0.00 | 0.00 | 75 | 1025.7 | |
| 20260901223016 | 86 | 0.0 | 0.0 | 0.00 | 0.00 | 0.00 | 75 | 1025.8 | |
| 20260901222536 | 87 | 0.0 | 0.0 | 0.00 | 0.00 | 0.00 | 74 | 1025.7 | |
| 20260901222016 | 87 | 0.0 | 0.0 | 0.00 | 0.00 | 0.00 | 72 | 1025.6 | |
| 20260901221516 | 87 | 0.0 | 0.0 | 0.00 | 0.00 | 0.00 | 72 | 1025.6 | |
| 20260901221016 | 87 | 0.0 | 0.0 | 0.00 | 0.00 | 0.00 | 71 | 1025.7 | |
| 20260901220516 | 87 | 0.0 | 0.0 | 0.00 | 0.00 | 0.00 | 69 | 1025.6 | |
| 20260901220016 | 88 | 0.0 | 0.0 | 0.00 | 0.00 | 0.00 | 68 | 1025.6 | |
| 20260901215656 | 88 | 0.0 | 0.0 | 0.00 | 0.00 | 0.00 | 68 | 1025.8 | |
| 20260901215016 | 88 | 0.0 | 0.0 | 0.00 | 0.00 | 0.00 | 67 | 1025.8 | |
| 20260901214536 | 88 | 0.0 | 0.0 | 0.00 | 0.00 | 0.00 | 66 | 1025.8 | |
| 20260901214016 | 89 | 0.0 | 0.0 | 0.00 | 0.00 | 0.00 | 66 | 1025.8 | |
| 20260901213516 | 89 | 0.0 | 0.0 | 0.00 | 0.00 | 0.00 | 66 | 1025.7 | |
| 20260901213036 | 89 | 0.0 | 0.0 | 0.00 | 0.00 | 0.00 | 65 | 1025.9 | |
| 20260901212516 | 89 | 0.0 | 1.0 | 0.00 | 0.00 | 0.00 | 63 | 1025.8 | |
| 20260901212016 | 88 | 0.0 | 2.0 | 0.00 | 0.00 | 0.00 | 65 | 1025.8 | |
| 20260901211516 | 89 | 0.0 | 0.0 | 0.00 | 0.00 | 0.00 | 66 | 1025.9 | |
| 20260901211017 | 89 | 0.0 | 0.0 | 0.00 | 0.00 | 0.00 | 65 | 1025.8 | |
| 20260901210536 | 90 | 0.0 | 0.0 | 0.00 | 0.00 | 0.00 | 62 | 1025.8 | |
| 20260901210016 | 90 | 0.0 | 0.0 | 0.00 | 0.00 | 0.00 | 61 | 1025.9 | |
| 20260901205516 | 90 | 0.0 | 0.0 | 0.00 | 0.00 | 0.00 | 61 | 1025.8 | |
| 20260901205016 | 90 | 0.0 | 0.0 | 0.00 | 0.00 | 0.00 | 56 | 1026.0 | |
| 20260901204536 | 90 | 0.0 | 0.0 | 0.00 | 0.00 | 0.00 | 56 | 1026.0 | |
| 20260901204016 | 90 | 0.0 | 1.0 | 0.00 | 0.00 | 0.00 | 57 | 1026.0 | |
| 20260901203516 | 90 | 0.0 | 1.0 | 0.00 | 0.00 | 0.00 | 61 | 1026.1 | |
| 20260901203016 | 90 | 0.0 | 1.0 | 0.00 | 0.00 | 0.00 | 58 | 1026.1 | |
| 20260901202516 | 90 | 0.0 | 1.0 | 0.00 | 0.00 | 0.00 | 59 | 1026.1 | |
| 20260901202016 | 90 | 0.0 | 0.0 | 0.00 | 0.00 | 0.00 | 54 | 1026.1 | |
| 20260901201516 | 90 | 0.0 | 1.0 | 0.00 | 0.00 | 0.00 | 55 | 1026.2 | |
| 20260901201016 | 90 | 0.0 | 0.0 | 0.00 | 0.00 | 0.00 | 59 | 1026.2 | |
| 20260901200516 | 91 | 0.0 | 1.0 | 0.00 | 0.00 | 0.00 | 58 | 1026.2 | |
| 20260901200016 | 91 | 0.0 | 1.0 | 0.00 | 0.00 | 0.00 | 53 | 1026.2 | |
| 20260901195516 | 91 | 0.0 | 0.0 | 0.00 | 0.00 | 0.00 | 55 | 1026.2 | |
| 20260901195016 | 91 | 0.0 | 2.0 | 0.00 | 0.00 | 0.00 | 56 | 1026.2 | |
| 20260901194516 | 91 | 0.0 | 1.0 | 0.00 | 0.00 | 0.00 | 56 | 1026.4 | |
| 20260901194016 | 91 | 0.0 | 1.0 | 0.00 | 0.00 | 0.00 | 57 | 1026.4 | |
| 20260901193536 | 91 | 0.0 | 1.0 | 0.00 | 0.00 | 0.00 | 56 | 1026.5 | |
| 20260901193016 | 90 | 0.0 | 1.0 | 0.00 | 0.00 | 0.00 | 56 | 1026.4 | |
| 20260901192516 | 90 | 0.0 | 1.0 | 0.00 | 0.00 | 0.00 | 57 | 1026.5 | |
| 20260901192017 | 90 | 0.0 | 1.0 | 0.00 | 0.00 | 0.00 | 62 | 1026.5 | |
| 20260901191516 | 90 | 0.0 | 1.0 | 0.00 | 0.00 | 0.00 | 56 | 1026.7 | |
| 20260901191021 | 90 | 0.0 | 1.0 | 0.00 | 0.00 | 0.00 | 60 | 1026.7 | |
| 20260901190516 | 90 | 158 | 1.0 | 5.0 | 0.00 | 0.00 | 0.00 | 59 | 1026.7 |
| 20260901190016 | 89 | 0.0 | 1.0 | 0.00 | 0.00 | 0.00 | 62 | 1026.7 | |
| 20260901185516 | 89 | 0.0 | 1.0 | 0.00 | 0.00 | 0.00 | 65 | 1026.8 | |
| 20260901185016 | 90 | 0.0 | 1.0 | 0.00 | 0.00 | 0.00 | 63 | 1026.9 | |
| 20260901184516 | 90 | 0.0 | 0.0 | 0.00 | 0.00 | 0.00 | 59 | 1027.1 | |
| 20260901184016 | 91 | 0.0 | 1.0 | 0.00 | 0.00 | 0.00 | 58 | 1026.9 | |
| 20260901183516 | 91 | 0.0 | 1.0 | 0.00 | 0.00 | 0.00 | 57 | 1027.0 | |
| 20260901183016 | 92 | 0.0 | 1.0 | 0.00 | 0.00 | 0.00 | 55 | 1026.8 | |
| 20260901182516 | 92 | 0.0 | 2.0 | 0.00 | 0.00 | 0.00 | 55 | 1026.7 | |
| 20260901182016 | 92 | 135 | 1.0 | 5.0 | 0.00 | 0.00 | 0.00 | 56 | 1026.8 |
| 20260901181516 | 92 | 0.0 | 2.0 | 0.00 | 0.00 | 0.00 | 56 | 1026.8 | |
| 20260901181016 | 91 | 135 | 1.0 | 3.0 | 0.00 | 0.00 | 0.00 | 53 | 1026.7 |
| 20260901180516 | 91 | 0.0 | 1.0 | 0.00 | 0.00 | 0.00 | 58 | 1026.7 | |
| 20260901180016 | 91 | 0.0 | 0.0 | 0.00 | 0.00 | 0.00 | 59 | 1026.7 | |
| 20260901175516 | 91 | 0.0 | 1.0 | 0.00 | 0.00 | 0.00 | 57 | 1026.9 | |
| 20260901175016 | 92 | 0.0 | 1.0 | 0.00 | 0.00 | 0.00 | 61 | 1026.9 | |
| 20260901174516 | 92 | 0.0 | 3.0 | 0.00 | 0.00 | 0.00 | 56 | 1026.7 | |
| 20260901174018 | 91 | 158 | 1.0 | 3.0 | 0.00 | 0.00 | 0.00 | 58 | 1026.9 |
| 20260901173516 | 92 | 0.0 | 1.0 | 0.00 | 0.00 | 0.00 | 58 | 1026.8 | |
| 20260901173036 | 92 | 135 | 1.0 | 3.0 | 0.00 | 0.00 | 0.00 | 57 | 1027.0 |
| 20260901172016 | 92 | 0.0 | 1.0 | 0.00 | 0.00 | 0.00 | 57 | 1027.1 | |
| 20260901171516 | 92 | 0.0 | 1.0 | 0.00 | 0.00 | 0.00 | 58 | 1027.1 | |
| 20260901171016 | 92 | 0.0 | 2.0 | 0.00 | 0.00 | 0.00 | 59 | 1027.2 | |
| 20260901170516 | 92 | 0.0 | 2.0 | 0.00 | 0.00 | 0.00 | 58 | 1027.2 | |
| 20260901170016 | 92 | 0.0 | 3.0 | 0.00 | 0.00 | 0.00 | 57 | 1027.3 | |
| 20260901165516 | 92 | 0.0 | 1.0 | 0.00 | 0.00 | 0.00 | 58 | 1027.3 | |
| 20260901165036 | 93 | 0 | 1.0 | 2.0 | 0.00 | 0.00 | 0.00 | 57 | 1027.4 |
| 20260901164516 | 93 | 0.0 | 1.0 | 0.00 | 0.00 | 0.00 | 58 | 1027.6 | |
| 20260901164016 | 94 | 135 | 1.0 | 3.0 | 0.00 | 0.00 | 0.00 | 55 | 1027.6 |
| 20260901163516 | 93 | 158 | 1.0 | 3.0 | 0.00 | 0.00 | 0.00 | 58 | 1027.5 |
| 20260901163016 | 93 | 0.0 | 0.0 | 0.00 | 0.00 | 0.00 | 58 | 1027.6 | |
| 20260901162536 | 93 | 0.0 | 1.0 | 0.00 | 0.00 | 0.00 | 58 | 1027.8 | |
| 20260901162016 | 93 | 0.0 | 1.0 | 0.00 | 0.00 | 0.00 | 57 | 1027.9 | |
| 20260901161516 | 93 | 0.0 | 1.0 | 0.00 | 0.00 | 0.00 | 58 | 1027.9 | |
| 20260901161036 | 92 | 0.0 | 1.0 | 0.00 | 0.00 | 0.00 | 57 | 1027.9 | |
| 20260901160516 | 92 | 0.0 | 1.0 | 0.00 | 0.00 | 0.00 | 57 | 1028.0 | |
| 20260901160036 | 93 | 0.0 | 1.0 | 0.00 | 0.00 | 0.00 | 58 | 1028.0 | |
| 20260901155516 | 92 | 0.0 | 2.0 | 0.00 | 0.00 | 0.00 | 58 | 1028.0 | |
| 20260901155036 | 92 | 0.0 | 2.0 | 0.00 | 0.00 | 0.00 | 62 | 1028.1 | |
| 20260901154516 | 92 | 0.0 | 0.0 | 0.00 | 0.00 | 0.00 | 64 | 1028.1 | |
| 20260901154036 | 91 | 0.0 | 0.0 | 0.00 | 0.00 | 0.00 | 64 | 1028.1 | |
| 20260901153516 | 91 | 0.0 | 2.0 | 0.00 | 0.00 | 0.00 | 66 | 1028.2 | |
| 20260901153036 | 90 | 0.0 | 1.0 | 0.00 | 0.00 | 0.00 | 70 | 1028.3 | |
| 20260901152516 | 91 | 0.0 | 2.0 | 0.00 | 0.00 | 0.00 | 70 | 1028.3 | |
| 20260901152016 | 91 | 0.0 | 2.0 | 0.00 | 0.00 | 0.00 | 67 | 1028.3 | |
| 20260901151516 | 90 | 0.0 | 2.0 | 0.00 | 0.00 | 0.00 | 70 | 1028.3 | |
| 20260901151016 | 89 | 0.0 | 1.0 | 0.00 | 0.00 | 0.00 | 72 | 1028.4 | |
| 20260901150516 | 90 | 0.0 | 2.0 | 0.00 | 0.00 | 0.00 | 70 | 1028.5 | |
| 20260901150016 | 89 | 0.0 | 1.0 | 0.00 | 0.00 | 0.00 | 70 | 1028.5 | |
| 20260901145516 | 88 | 0.0 | 1.0 | 0.00 | 0.00 | 0.00 | 71 | 1028.6 | |
| 20260901145016 | 88 | 0.0 | 1.0 | 0.00 | 0.00 | 0.00 | 70 | 1028.7 | |
| 20260901144516 | 87 | 0.0 | 1.0 | 0.00 | 0.00 | 0.00 | 73 | 1028.7 | |
| 20260901144016 | 87 | 0.0 | 0.0 | 0.00 | 0.00 | 0.00 | 73 | 1028.7 | |
| 20260901143536 | 87 | 0.0 | 1.0 | 0.00 | 0.00 | 0.00 | 73 | 1028.8 | |
| 20260901143016 | 87 | 0.0 | 1.0 | 0.00 | 0.00 | 0.00 | 74 | 1028.7 | |
| 20260901142517 | 87 | 0.0 | 0.0 | 0.00 | 0.00 | 0.00 | 74 | 1028.7 | |
| 20260901142016 | 86 | 0.0 | 1.0 | 0.00 | 0.00 | 0.00 | 73 | 1028.8 | |
| 20260901141516 | 86 | 0.0 | 1.0 | 0.00 | 0.00 | 0.00 | 75 | 1028.7 | |
| 20260901141016 | 86 | 0.0 | 0.0 | 0.00 | 0.00 | 0.00 | 74 | 1028.7 | |
| 20260901140516 | 86 | 0.0 | 1.0 | 0.00 | 0.00 | 0.00 | 73 | 1028.8 | |
| 20260901140016 | 85 | 0.0 | 1.0 | 0.00 | 0.00 | 0.00 | 75 | 1028.8 | |
| 20260901135536 | 85 | 0.0 | 1.0 | 0.00 | 0.00 | 0.00 | 76 | 1028.7 | |
| 20260901135016 | 85 | 0.0 | 1.0 | 0.00 | 0.00 | 0.00 | 77 | 1028.5 | |
| 20260901134516 | 84 | 0.0 | 0.0 | 0.00 | 0.00 | 0.00 | 77 | 1028.5 | |
| 20260901134036 | 83 | 0.0 | 0.0 | 0.00 | 0.00 | 0.00 | 79 | 1028.6 | |
| 20260901133516 | 82 | 0.0 | 0.0 | 0.00 | 0.00 | 0.00 | 80 | 1028.5 | |
| 20260901133016 | 82 | 0.0 | 0.0 | 0.00 | 0.00 | 0.00 | 81 | 1028.6 | |
| 20260901132516 | 81 | 0.0 | 0.0 | 0.00 | 0.00 | 0.00 | 84 | 1028.6 | |
| 20260901132016 | 81 | 0.0 | 0.0 | 0.00 | 0.00 | 0.00 | 85 | 1028.4 | |
| 20260901131516 | 80 | 0.0 | 0.0 | 0.00 | 0.00 | 0.00 | 87 | 1028.5 | |
| 20260901131036 | 79 | 0.0 | 0.0 | 0.00 | 0.00 | 0.00 | 89 | 1028.5 | |
| 20260901130516 | 79 | 0.0 | 0.0 | 0.00 | 0.00 | 0.00 | 90 | 1028.4 | |
| 20260901130016 | 78 | 0.0 | 0.0 | 0.00 | 0.00 | 0.00 | 91 | 1028.5 | |
| 20260901125516 | 77 | 0.0 | 0.0 | 0.00 | 0.00 | 0.00 | 92 | 1028.6 | |
| 20260901125016 | 76 | 0.0 | 0.0 | 0.00 | 0.00 | 0.00 | 94 | 1028.5 | |
| 20260901124516 | 75 | 0.0 | 0.0 | 0.00 | 0.00 | 0.00 | 93 | 1028.6 | |
| 20260901124036 | 75 | 0.0 | 0.0 | 0.00 | 0.00 | 0.00 | 93 | 1028.8 | |
| 20260901123516 | 74 | 0.0 | 0.0 | 0.00 | 0.00 | 0.00 | 93 | 1028.7 | |
| 20260901123016 | 74 | 0.0 | 0.0 | 0.00 | 0.00 | 0.00 | 94 | 1028.6 | |
| 20260901122516 | 73 | 0.0 | 0.0 | 0.00 | 0.00 | 0.00 | 94 | 1028.6 | |
| 20260901122016 | 73 | 0.0 | 0.0 | 0.00 | 0.00 | 0.00 | 95 | 1028.7 | |
| 20260901121541 | 72 | 0.0 | 0.0 | 0.00 | 0.00 | 0.00 | 94 | 1028.6 | |
| 20260901121016 | 72 | 0.0 | 0.0 | 0.00 | 0.00 | 0.00 | 95 | 1028.6 | |
| 20260901120516 | 72 | 0.0 | 0.0 | 0.00 | 0.00 | 0.00 | 95 | 1028.6 | |
| 20260901120016 | 71 | 0.0 | 0.0 | 0.00 | 0.00 | 0.00 | 95 | 1028.5 | |
| 20260901115516 | 71 | 0.0 | 0.0 | 0.00 | 0.00 | 0.00 | 95 | 1028.5 | |
| 20260901115016 | 71 | 0.0 | 0.0 | 0.00 | 0.00 | 0.00 | 95 | 1028.4 | |
| 20260901114516 | 71 | 0.0 | 0.0 | 0.00 | 0.00 | 0.00 | 95 | 1028.4 | |
| 20260901114036 | 71 | 0.0 | 0.0 | 0.00 | 0.00 | 0.00 | 95 | 1028.2 | |
| 20260901113518 | 71 | 0.0 | 0.0 | 0.00 | 0.00 | 0.00 | 95 | 1028.1 | |
| 20260901113016 | 71 | 0.0 | 0.0 | 0.00 | 0.00 | 0.00 | 95 | 1028.1 | |
| 20260901112516 | 71 | 0.0 | 0.0 | 0.00 | 0.00 | 0.00 | 95 | 1027.9 | |
| 20260901112016 | 71 | 0.0 | 0.0 | 0.00 | 0.00 | 0.00 | 95 | 1027.8 | |
| 20260901111536 | 71 | 0.0 | 0.0 | 0.00 | 0.00 | 0.00 | 95 | 1027.8 | |
| 20260901111016 | 70 | 0.0 | 0.0 | 0.00 | 0.00 | 0.00 | 95 | 1027.8 | |
| 20260901110516 | 70 | 0.0 | 0.0 | 0.00 | 0.00 | 0.00 | 95 | 1027.8 | |
| 20260901110016 | 70 | 0.0 | 0.0 | 0.00 | 0.00 | 0.00 | 95 | 1027.9 | |
| 20260901105516 | 70 | 0.0 | 0.0 | 0.00 | 0.00 | 0.00 | 95 | 1028.0 | |
| 20260901105056 | 70 | 0.0 | 0.0 | 0.00 | 0.00 | 0.00 | 95 | 1028.0 | |
| 20260901104516 | 70 | 0.0 | 0.0 | 0.00 | 0.00 | 0.00 | 95 | 1027.9 | |
| 20260901104016 | 70 | 0.0 | 0.0 | 0.00 | 0.00 | 0.00 | 95 | 1028.0 | |
| 20260901103516 | 70 | 0.0 | 0.0 | 0.00 | 0.00 | 0.00 | 95 | 1028.0 | |
| 20260901103036 | 70 | 0.0 | 0.0 | 0.00 | 0.00 | 0.00 | 95 | 1027.9 | |
| 20260901102556 | 70 | 0.0 | 0.0 | 0.00 | 0.00 | 0.00 | 95 | 1027.9 | |
| 20260901102016 | 70 | 0.0 | 0.0 | 0.00 | 0.00 | 0.00 | 94 | 1028.0 | |
| 20260901101536 | 70 | 0.0 | 0.0 | 0.00 | 0.00 | 0.00 | 94 | 1027.9 | |
| 20260901101016 | 70 | 0.0 | 0.0 | 0.00 | 0.00 | 0.00 | 95 | 1027.9 | |
| 20260901100516 | 70 | 0.0 | 0.0 | 0.00 | 0.00 | 0.00 | 94 | 1027.9 | |
| 20260901100016 | 71 | 0.0 | 0.0 | 0.00 | 0.00 | 0.00 | 94 | 1028.0 | |
| 20260901095556 | 71 | 0.0 | 0.0 | 0.00 | 0.00 | 0.00 | 94 | 1027.9 | |
| 20260901095016 | 71 | 0.0 | 0.0 | 0.00 | 0.00 | 0.00 | 94 | 1027.9 | |
| 20260901094516 | 71 | 0.0 | 0.0 | 0.00 | 0.00 | 0.00 | 94 | 1028.0 | |
| 20260901094016 | 71 | 0.0 | 0.0 | 0.00 | 0.00 | 0.00 | 94 | 1028.1 | |
| 20260901093516 | 71 | 0.0 | 0.0 | 0.00 | 0.00 | 0.00 | 94 | 1028.1 | |
| 20260901093036 | 71 | 0.0 | 0.0 | 0.00 | 0.00 | 0.00 | 94 | 1028.1 | |
| 20260901092516 | 71 | 0.0 | 0.0 | 0.00 | 0.00 | 0.00 | 94 | 1028.1 | |
| 20260901092016 | 71 | 0.0 | 0.0 | 0.00 | 0.00 | 0.00 | 95 | 1028.0 | |
| 20260901091516 | 71 | 0.0 | 0.0 | 0.00 | 0.00 | 0.00 | 95 | 1028.0 | |
| 20260901091016 | 71 | 0.0 | 0.0 | 0.00 | 0.00 | 0.00 | 94 | 1027.8 | |
| 20260901090516 | 71 | 0.0 | 0.0 | 0.00 | 0.00 | 0.00 | 95 | 1027.7 | |
| 20260901090016 | 71 | 0.0 | 0.0 | 0.00 | 0.00 | 0.00 | 95 | 1027.7 | |
| 20260901085516 | 71 | 0.0 | 0.0 | 0.00 | 0.00 | 0.00 | 95 | 1027.6 | |
| 20260901085016 | 71 | 0.0 | 0.0 | 0.00 | 0.00 | 0.00 | 94 | 1027.7 | |
| 20260901084516 | 71 | 0.0 | 0.0 | 0.00 | 0.00 | 0.00 | 94 | 1027.7 | |
| 20260901084016 | 71 | 0.0 | 0.0 | 0.00 | 0.00 | 0.00 | 94 | 1027.7 | |
| 20260901083516 | 71 | 0.0 | 0.0 | 0.00 | 0.00 | 0.00 | 94 | 1027.7 | |
| 20260901083016 | 71 | 0.0 | 0.0 | 0.00 | 0.00 | 0.00 | 94 | 1027.9 | |
| 20260901082516 | 71 | 0.0 | 0.0 | 0.00 | 0.00 | 0.00 | 94 | 1027.9 | |
| 20260901082016 | 71 | 0.0 | 0.0 | 0.00 | 0.00 | 0.00 | 94 | 1027.9 | |
| 20260901081516 | 71 | 0.0 | 0.0 | 0.00 | 0.00 | 0.00 | 94 | 1027.9 | |
| 20260901081016 | 71 | 0.0 | 0.0 | 0.00 | 0.00 | 0.00 | 94 | 1028.0 | |
| 20260901080536 | 72 | 0.0 | 0.0 | 0.00 | 0.00 | 0.00 | 94 | 1028.1 | |
| 20260901080016 | 72 | 0.0 | 0.0 | 0.00 | 0.00 | 0.00 | 94 | 1028.0 | |
| 20260901075536 | 71 | 0.0 | 0.0 | 0.00 | 0.00 | 0.00 | 94 | 1027.9 | |
| 20260901075016 | 72 | 0.0 | 0.0 | 0.00 | 0.00 | 0.00 | 94 | 1028.0 | |
| 20260901074516 | 72 | 0.0 | 0.0 | 0.00 | 0.00 | 0.00 | 94 | 1028.0 | |
| 20260901074016 | 72 | 0.0 | 0.0 | 0.00 | 0.00 | 0.00 | 94 | 1028.0 | |
| 20260901073516 | 72 | 0.0 | 0.0 | 0.00 | 0.00 | 0.00 | 94 | 1028.0 | |
| 20260901073016 | 72 | 0.0 | 0.0 | 0.00 | 0.00 | 0.00 | 94 | 1028.0 | |
| 20260901072516 | 72 | 0.0 | 0.0 | 0.00 | 0.00 | 0.00 | 94 | 1028.1 | |
| 20260901072036 | 72 | 0.0 | 0.0 | 0.00 | 0.00 | 0.00 | 94 | 1028.1 | |
| 20260901071516 | 72 | 0.0 | 0.0 | 0.00 | 0.00 | 0.00 | 94 | 1028.2 | |
| 20260901071016 | 72 | 0.0 | 0.0 | 0.00 | 0.00 | 0.00 | 94 | 1028.2 | |
| 20260901070516 | 72 | 0.0 | 0.0 | 0.00 | 0.00 | 0.00 | 94 | 1028.3 | |
| 20260901070036 | 72 | 0.0 | 0.0 | 0.00 | 0.00 | 0.00 | 94 | 1028.3 | |
| 20260901065516 | 72 | 0.0 | 0.0 | 0.00 | 0.00 | 0.00 | 94 | 1028.3 | |
| 20260901065016 | 72 | 0.0 | 0.0 | 0.00 | 0.00 | 0.00 | 94 | 1028.5 | |
| 20260901064516 | 72 | 0.0 | 0.0 | 0.00 | 0.00 | 0.00 | 94 | 1028.5 | |
| 20260901064016 | 72 | 0.0 | 0.0 | 0.00 | 0.00 | 0.00 | 94 | 1028.6 | |
| 20260901063516 | 72 | 0.0 | 0.0 | 0.00 | 0.00 | 0.00 | 94 | 1028.7 | |
| 20260901063016 | 72 | 0.0 | 0.0 | 0.00 | 0.00 | 0.00 | 94 | 1028.8 | |
| 20260901062517 | 73 | 0.0 | 0.0 | 0.00 | 0.00 | 0.00 | 93 | 1028.8 | |
| 20260901062016 | 73 | 0.0 | 0.0 | 0.00 | 0.00 | 0.00 | 93 | 1028.8 | |
| 20260901061516 | 73 | 0.0 | 0.0 | 0.00 | 0.00 | 0.00 | 93 | 1028.8 | |
| 20260901061016 | 73 | 0.0 | 0.0 | 0.00 | 0.00 | 0.00 | 93 | 1028.8 | |
| 20260901060516 | 73 | 0.0 | 0.0 | 0.00 | 0.00 | 0.00 | 93 | 1028.9 | |
| 20260901060016 | 73 | 0.0 | 0.0 | 0.00 | 0.00 | 0.00 | 93 | 1028.9 | |
| 20260901055516 | 73 | 0.0 | 0.0 | 0.00 | 0.00 | 0.00 | 93 | 1029.0 | |
| 20260901055016 | 73 | 0.0 | 0.0 | 0.00 | 0.00 | 0.00 | 93 | 1029.0 | |
| 20260901054516 | 73 | 0.0 | 0.0 | 0.00 | 0.00 | 0.00 | 93 | 1029.0 | |
| 20260901054016 | 73 | 0.0 | 0.0 | 0.00 | 0.00 | 0.00 | 93 | 1029.1 | |
| 20260901053516 | 73 | 0.0 | 0.0 | 0.00 | 0.00 | 0.00 | 93 | 1029.2 | |
| 20260901053016 | 73 | 0.0 | 0.0 | 0.00 | 0.00 | 0.00 | 93 | 1029.2 | |
| 20260901052536 | 73 | 0.0 | 0.0 | 0.00 | 0.00 | 0.00 | 93 | 1029.1 | |
| 20260901052016 | 74 | 0.0 | 0.0 | 0.00 | 0.00 | 0.00 | 93 | 1029.3 | |
| 20260901051516 | 74 | 0.0 | 0.0 | 0.00 | 0.00 | 0.00 | 92 | 1029.2 | |
| 20260901051016 | 74 | 0.0 | 0.0 | 0.00 | 0.00 | 0.00 | 92 | 1029.2 | |
| 20260901050536 | 74 | 0.0 | 0.0 | 0.00 | 0.00 | 0.00 | 92 | 1029.2 | |
| 20260901050016 | 74 | 0.0 | 0.0 | 0.00 | 0.00 | 0.00 | 92 | 1029.2 | |
| 20260901045536 | 74 | 0.0 | 0.0 | 0.00 | 0.00 | 0.00 | 92 | 1029.3 | |
| 20260901045036 | 74 | 0.0 | 0.0 | 0.00 | 0.00 | 0.00 | 92 | 1029.3 | |
| 20260901044516 | 74 | 0.0 | 0.0 | 0.00 | 0.00 | 0.00 | 92 | 1029.3 | |
| 20260901044016 | 74 | 0.0 | 0.0 | 0.00 | 0.00 | 0.00 | 92 | 1029.2 | |
| 20260901043516 | 75 | 0.0 | 0.0 | 0.00 | 0.00 | 0.00 | 92 | 1029.2 | |
| 20260901043015 | 75 | 0.0 | 0.0 | 0.00 | 0.00 | 0.00 | 92 | 1029.2 | |
| 20260901042516 | 75 | 0.0 | 0.0 | 0.00 | 0.00 | 0.00 | 92 | 1029.3 | |
| 20260901042016 | 75 | 0.0 | 0.0 | 0.00 | 0.00 | 0.00 | 92 | 1029.1 | |
| 20260901041516 | 75 | 0.0 | 0.0 | 0.00 | 0.00 | 0.00 | 92 | 1029.1 | |
| 20260901041016 | 75 | 0.0 | 0.0 | 0.00 | 0.00 | 0.00 | 92 | 1029.1 | |
| 20260901040516 | 75 | 0.0 | 0.0 | 0.00 | 0.00 | 0.00 | 92 | 1029.1 | |
| 20260901040036 | 75 | 0.0 | 0.0 | 0.00 | 0.00 | 0.00 | 92 | 1029.2 | |
| 20260901035537 | 75 | 0.0 | 0.0 | 0.00 | 0.00 | 0.00 | 92 | 1029.2 | |
| 20260901035017 | 75 | 0.0 | 0.0 | 0.00 | 0.00 | 0.00 | 92 | 1029.2 | |
| 20260901034517 | 75 | 0.0 | 0.0 | 0.00 | 0.00 | 0.00 | 91 | 1029.2 | |
| 20260901034016 | 75 | 0.0 | 0.0 | 0.00 | 0.00 | 0.00 | 91 | 1029.2 | |
| 20260901033516 | 76 | 0.0 | 0.0 | 0.00 | 0.00 | 0.00 | 91 | 1029.2 | |
| 20260901033036 | 76 | 0.0 | 0.0 | 0.00 | 0.00 | 0.00 | 91 | 1029.2 | |
| 20260901032516 | 76 | 0.0 | 0.0 | 0.00 | 0.00 | 0.00 | 91 | 1029.2 | |
| 20260901032016 | 76 | 0.0 | 0.0 | 0.00 | 0.00 | 0.00 | 91 | 1029.2 | |
| 20260901031537 | 76 | 0.0 | 0.0 | 0.00 | 0.00 | 0.00 | 91 | 1029.1 | |
| 20260901031016 | 76 | 0.0 | 0.0 | 0.00 | 0.00 | 0.00 | 91 | 1029.2 | |
| 20260901030516 | 76 | 0.0 | 0.0 | 0.00 | 0.00 | 0.00 | 91 | 1029.2 | |
| 20260901030016 | 76 | 0.0 | 0.0 | 0.00 | 0.00 | 0.00 | 90 | 1029.3 | |
| 20260901025517 | 76 | 0.0 | 0.0 | 0.00 | 0.00 | 0.00 | 90 | 1029.2 | |
| 20260901025016 | 76 | 0.0 | 0.0 | 0.00 | 0.00 | 0.00 | 90 | 1029.3 |